Location: Cudham
(51.3000°N, 0.0667°E)
Time: 16:50:13
(UTC+00:00)

USA 229 DEB - Pass Details

Date: 24 April 2026
Orbit: 844 x 1364 km, 63.4° (Epoch: 10 January)

Event Time Altitude Azimuth Distance (km) Brightness Sun altitude
Rises 23:27:14 0° 315° (NW) 3,955 7.5 -25.2°
Reaches altitude 10° 23:29:49 10° 313° (NW) 3,064 6.7 -25.3°
Maximum altitude 23:37:11 67° 233° (SW) 1,349 4.0 -25.4°
Enters shadow 23:39:23 49° 173° (S) 1,610 4.1 -25.5°
